Regional Weather Roundup
Issued by NWS

Home | Current Version | Previous Version | Text Only | Print | Product List | Glossary On
Versions: 1 2 3 4 5 6 7 8 9 10 11 12 13 14 15 16 17 18 19 20 21 22 23 24 25 26 27 28 29 30 31 32 33 34 35 36 37 38 39 40 41 42 43 44 45 46 47 48 49 50
000
ASUS43 KDMX 262306
RWRIA

WEATHER ROUNDUP FOR IOWA
NATIONAL WEATHER SERVICE DES MOINES IA
600 PM CDT THU APR 26 2018

NOTE: "FAIR" INDICATES FEW OR NO CLOUDS BELOW 12,000 FEET WITH NO
SIGNIFICANT WEATHER AND/OR OBSTRUCTIONS TO VISIBILITY.

* - THESE STATIONS ARE NOT NWS STATIONS...THUS NOT UNDER NWS
QUALITY CONTROL.  THEY ALSO DO NOT REPORT WEATHER SUCH
AS PRECIPITATION OR FOG.

IAZ001>003-012>014-020>022-031>034-043>046-270000-
   NORTHWEST IOWA

CITY           SKY/WX    TMP DP  RH WIND       PRES   REMARKS
CARROLL *      SUNNY     64  36  34 N25G33    29.95R
CHEROKEE *     SUNNY     60  32  34 N15G29    29.99S
DENISON *      SUNNY     63  30  29 N24G32    29.99R
LE MARS *      SUNNY     63  27  25 NW16G31   30.01S
ORANGE CITY *  SUNNY     61  34  36 N14G28    30.01F
SHELDON *      SUNNY     59  32  36 N23G31    29.99S
SIOUX CITY     SUNNY     63  30  28 N21G29    30.01R
SPENCER        SUNNY     58  32  37 N23G35    29.98S
STORM LAKE *   SUNNY     59  32  36 N23G35    29.98S
$$

IAZ055>058-069>071-079>083-090>094-270000-
   SOUTHWEST IOWA

CITY           SKY/WX    TMP DP  RH WIND       PRES   REMARKS
ATLANTIC *     SUNNY     66  41  39 N22G29    29.94R
AUDUBON *      SUNNY     64  37  36 N20G31    29.96R
CLARINDA *     PTSUNNY   72  39  30 NW16      29.94S
COUNCIL BLFS * SUNNY     66  37  34 N24G30    29.96R
CRESTON *      CLOUDY    68  41  37 NW21      29.92S
HARLAN  *      SUNNY     66  32  28 N22G33    29.99R
LAMONI         MOSUNNY   66  35  31 W13       29.91S
RED OAK *      SUNNY     70  39  32 N22G30    29.94R
SHENANDOAH *   SUNNY     70  37  30 NW14G23   29.94R
$$

IAZ047>049-059>061-072>074-084-270000-
   CENTRAL IOWA

CITY           SKY/WX    TMP DP  RH WIND       PRES   REMARKS
AMES           SUNNY     65  42  43 NW21G33   29.90R
ANKENY *       MOSUNNY   70  39  32 NW17G30   29.88R
BOONE *        MOSUNNY   63  43  48 N24G33    29.90R
CHARITON *     CLOUDY    68  32  26 W12       29.88F
DES MOINES     MOSUNNY   72  40  31 NW18      29.87S
GRINNELL*      MOSUNNY   71  30  21 W14       29.86F
KNOXVILLE *    MOSUNNY   70  28  21 W15       29.86S
MARSHALLTOWN   MOSUNNY   67  43  41 NW23G31   29.85R
NEWTON *       CLOUDY    72  32  23 W17       29.86S
PELLA *        MOSUNNY   69  28  21 W14       29.88S
PERRY *        FAIR      65  37  35 N22G30    29.92R
$$

IAZ004>006-015-016-023>025-035-036-270000-
   NORTH CENTRAL IOWA

CITY           SKY/WX    TMP DP  RH WIND       PRES   REMARKS
ALGONA *       SUNNY     57  34  41 NW23G32   29.95R
CLARION *      SUNNY     61  34  36 N23G32    29.91S
ESTHERVILLE    SUNNY     55  35  47 NW28G36   29.97R
FORT DODGE *   SUNNY     61  33  35 N17G26    29.94R
MASON CITY     SUNNY     62  37  39 NW24      29.90R
FOREST CITY *  FAIR      61  34  36 NW21G28   29.91S
WEBSTER CITY * SUNNY     63  37  39 NW25G32   29.90R
IOWA FALLS *   FAIR      64  44  46 NW24      29.89S
$$

IAZ007>011-017>019-026>030-037>042-050>054-066-270000-
   NORTHEAST IOWA

CITY           SKY/WX    TMP DP  RH WIND       PRES   REMARKS
CEDAR RAPIDS   FAIR      71  27  19 NW14      29.82F
CHARLES CITY * FAIR      63  39  42 N20G28    29.86S
CLINTON *      FAIR      71  28  20 W10       29.84F
DECORAH *      FAIR      63  43  48 NW13G22   29.82S
DUBUQUE        FAIR      67  27  22 W14       29.82F
MONTICELLO *   FAIR      70  25  18 W14       29.81F
OELWEIN *      FAIR      68  43  40 NW22      29.83S
WATERLOO       FAIR      64  43  46 NW22G30   29.84R
$$

IAZ064-065-067-068-078-270000-
   EAST CENTRAL IOWA

CITY           SKY/WX    TMP DP  RH WIND       PRES   REMARKS
DAVENPORT      FAIR      70  24  17 NW12      29.85F
IOWA CITY      FAIR      70  28  21 W13       29.85F
MT. PLEASANT * MOSUNNY   70  27  19 W10G16    29.86F
MUSCATINE *    FAIR      72  27  18 W12       29.84F
QUAD CITIES    FAIR      71  28  20 W10       29.83F
$$

IAZ062-063-075>077-085>089-095>099-270000-
   SOUTHEAST IOWA

CITY           SKY/WX    TMP DP  RH WIND       PRES   REMARKS
BURLINGTON     MOSUNNY   71  27  19 W9        29.85F
FAIRFIELD *    SUNNY     72  25  17 W12G18    29.86S
FORT MADISON * MOSUNNY   70  30  23 W8        29.87F
KEOKUK *       CLOUDY    70  32  24 W6        29.86F
OSKALOOSA *    FAIR      71  24  17 NW15      29.87S
CENTERVILLE *  FAIR      70  28  21 SW13      29.90S
OTTUMWA        SUNNY     70  29  21 W12       29.86F
WASHINGTON *   CLOUDY    70  28  21 W13G21    29.86F
$$

ABBREVIATIONS USED IN REMARKS
   TC - TEMPERATURES IN CELSIUS
  WCI - WIND CHILL INDEX
   HX - HEAT INDEX
  VSB - VISIBILITY
$$





USA.gov is the U.S. government's official web portal to all federal, state and local government web resources and services.